EZY46JA EGKK-EHAM

Flight info

Callsign EZY46JA
Flight time 0h 39m
Altitude 23000
Route FRANE1Z FRANE M604 GASBA M197 REDFA REDFA1A
Aircraft A320/M-SDE3FGHIRWY/LB1

Departure

Time 2026-05-04 17:43
Airport London Gatwick Airport (EGKK)

Arrival

Time 2026-05-04 18:22
Airport Amsterdam Airport Schiphol (EHAM)
Time Latitude Longitude Altitude Speed Heading
2026-05-04 15:16 51.15827 -0.17739 205 ft 0 kts 347°
2026-05-04 17:25 51.15826 -0.17739 205 ft 1 kts 347°
2026-05-04 17:26 51.15791 -0.17726 216 ft 3 kts 347°
2026-05-04 17:26 51.15740 -0.17692 217 ft 3 kts 280°
2026-05-04 17:27 51.15742 -0.17654 215 ft 1 kts 257°
2026-05-04 17:27 51.15742 -0.17653 215 ft 0 kts 257°
2026-05-04 17:31 51.15725 -0.17777 205 ft 10 kts 257°
2026-05-04 17:32 51.15695 -0.18000 206 ft 13 kts 258°
2026-05-04 17:33 51.15586 -0.18349 208 ft 9 kts 169°
2026-05-04 17:33 51.15507 -0.18321 215 ft 15 kts 167°
2026-05-04 17:34 51.15278 -0.18242 208 ft 0 kts 167°
2026-05-04 17:35 51.15208 -0.18235 205 ft 16 kts 210°
2026-05-04 17:35 51.15127 -0.18766 211 ft 29 kts 258°
2026-05-04 17:35 51.15082 -0.19094 209 ft 31 kts 257°
2026-05-04 17:36 51.15035 -0.19440 211 ft 33 kts 258°
2026-05-04 17:36 51.14983 -0.19806 209 ft 35 kts 257°
2026-05-04 17:36 51.14930 -0.20193 205 ft 37 kts 258°
2026-05-04 17:36 51.14879 -0.20563 212 ft 33 kts 257°
2026-05-04 17:37 51.14839 -0.20846 212 ft 23 kts 257°
2026-05-04 17:37 51.14809 -0.21060 210 ft 17 kts 257°
2026-05-04 17:37 51.14780 -0.21212 209 ft 13 kts 256°
2026-05-04 17:37 51.14766 -0.21310 211 ft 4 kts 257°
2026-05-04 17:38 51.14765 -0.21318 209 ft 0 kts 257°
2026-05-04 17:39 51.14752 -0.21380 213 ft 7 kts 243°
2026-05-04 17:39 51.14724 -0.21407 211 ft 0 kts 189°
2026-05-04 17:40 51.14717 -0.21408 212 ft 4 kts 185°
2026-05-04 17:40 51.14670 -0.21378 207 ft 8 kts 133°
2026-05-04 17:40 51.14627 -0.21332 207 ft 0 kts 169°
2026-05-04 17:40 51.14620 -0.21330 209 ft 1 kts 169°
2026-05-04 17:41 51.14580 -0.21313 211 ft 11 kts 162°
2026-05-04 17:41 51.14516 -0.21192 208 ft 16 kts 92°
2026-05-04 17:41 51.14528 -0.21116 211 ft 0 kts 77°
2026-05-04 17:42 51.14544 -0.20995 212 ft 38 kts 78°
2026-05-04 17:42 51.14658 -0.20168 213 ft 111 kts 78°
2026-05-04 17:43 51.14866 -0.18659 264 ft 162 kts 77°
2026-05-04 17:43 51.15098 -0.16816 945 ft 169 kts 78°
2026-05-04 17:43 51.15344 -0.14996 1874 ft 168 kts 76°
2026-05-04 17:43 51.15578 -0.13122 2641 ft 179 kts 78°
2026-05-04 17:44 51.15774 -0.11094 3319 ft 192 kts 79°
2026-05-04 17:44 51.16024 -0.08870 3831 ft 216 kts 77°
2026-05-04 17:44 51.16369 -0.06420 4374 ft 243 kts 76°
2026-05-04 17:44 51.16755 -0.03662 4904 ft 266 kts 82°
2026-05-04 17:45 51.16805 -0.00678 5059 ft 271 kts 90°
2026-05-04 17:45 51.16770 0.02327 5309 ft 274 kts 91°
2026-05-04 17:45 51.16719 0.05367 6388 ft 273 kts 92°
2026-05-04 17:45 51.16650 0.08405 7387 ft 278 kts 92°
2026-05-04 17:46 51.16593 0.11518 8315 ft 284 kts 92°
2026-05-04 17:46 51.16543 0.14701 9250 ft 289 kts 92°
2026-05-04 17:46 51.16512 0.17929 10166 ft 294 kts 91°
2026-05-04 17:46 51.16518 0.21208 11037 ft 298 kts 90°
2026-05-04 17:47 51.16600 0.24527 11920 ft 302 kts 81°
2026-05-04 17:47 51.17291 0.27651 12765 ft 307 kts 59°
2026-05-04 17:47 51.18666 0.30279 13634 ft 311 kts 46°
2026-05-04 17:47 51.20185 0.32755 14432 ft 314 kts 45°
2026-05-04 17:48 51.21732 0.35252 15181 ft 318 kts 46°
2026-05-04 17:48 51.23300 0.37786 15909 ft 323 kts 46°
2026-05-04 17:48 51.24900 0.40387 16417 ft 337 kts 46°
2026-05-04 17:48 51.26581 0.43174 16619 ft 359 kts 47°
2026-05-04 17:49 51.28327 0.46111 17140 ft 369 kts 47°
2026-05-04 17:49 51.30103 0.49116 17811 ft 374 kts 47°
2026-05-04 17:49 51.31903 0.52167 18476 ft 379 kts 47°
2026-05-04 17:49 51.33695 0.55207 19084 ft 383 kts 47°
2026-05-04 17:50 51.35531 0.58319 19724 ft 386 kts 47°
2026-05-04 17:50 51.37385 0.61456 20388 ft 390 kts 47°
2026-05-04 17:50 51.39263 0.64631 21012 ft 394 kts 47°
2026-05-04 17:50 51.41157 0.67835 21644 ft 398 kts 47°
2026-05-04 17:51 51.43070 0.71081 22231 ft 403 kts 48°
2026-05-04 17:51 51.44998 0.74361 22810 ft 407 kts 48°
2026-05-04 17:51 51.46946 0.77683 22998 ft 409 kts 48°
2026-05-04 17:51 51.48835 0.80902 23028 ft 396 kts 48°
2026-05-04 17:52 51.50715 0.84105 23028 ft 392 kts 47°
2026-05-04 17:52 51.52584 0.87289 23029 ft 391 kts 47°
2026-05-04 17:52 51.54448 0.90467 23031 ft 391 kts 48°
2026-05-04 17:52 51.56313 0.93658 23025 ft 391 kts 48°
2026-05-04 17:53 51.58176 0.96848 23027 ft 391 kts 48°
2026-05-04 17:53 51.60035 1.00045 23031 ft 392 kts 48°
2026-05-04 17:53 51.61897 1.03254 23030 ft 392 kts 48°
2026-05-04 17:53 51.63759 1.06462 23026 ft 392 kts 48°
2026-05-04 17:54 51.65597 1.09632 23027 ft 392 kts 47°
2026-05-04 17:54 51.67458 1.12844 23026 ft 393 kts 48°
2026-05-04 17:54 51.69321 1.16065 23028 ft 393 kts 47°
2026-05-04 17:54 51.71183 1.19284 23024 ft 393 kts 47°
2026-05-04 17:55 51.73047 1.22511 23025 ft 393 kts 47°
2026-05-04 17:55 51.74905 1.25733 23024 ft 393 kts 47°
2026-05-04 17:55 51.76765 1.28969 23024 ft 393 kts 47°
2026-05-04 17:55 51.78572 1.32117 23023 ft 393 kts 47°
2026-05-04 17:56 51.80432 1.35359 23026 ft 393 kts 47°
2026-05-04 17:56 51.82289 1.38601 23026 ft 393 kts 47°
2026-05-04 17:56 51.84148 1.41851 23030 ft 394 kts 47°
2026-05-04 17:56 51.86006 1.45101 23032 ft 394 kts 47°
2026-05-04 17:57 51.87866 1.48357 23027 ft 394 kts 47°
2026-05-04 17:57 51.89726 1.51618 23040 ft 394 kts 47°
2026-05-04 17:57 51.91584 1.54883 23028 ft 394 kts 47°
2026-05-04 17:57 51.93438 1.58146 23035 ft 394 kts 47°
2026-05-04 17:58 51.95297 1.61416 23044 ft 394 kts 47°
2026-05-04 17:58 51.97133 1.64711 23039 ft 394 kts 51°
2026-05-04 17:58 51.98668 1.68378 23045 ft 393 kts 62°
2026-05-04 17:58 51.99764 1.72422 23036 ft 391 kts 73°
2026-05-04 17:59 52.00467 1.76677 23038 ft 391 kts 77°
2026-05-04 17:59 52.01125 1.80951 23033 ft 391 kts 77°
2026-05-04 17:59 52.02446 1.89456 23021 ft 391 kts 77°
2026-05-04 18:00 52.03109 1.93736 23021 ft 391 kts 77°
2026-05-04 18:00 52.03772 1.98017 23020 ft 391 kts 77°
2026-05-04 18:00 52.04433 2.02300 23021 ft 391 kts 77°
2026-05-04 18:00 52.05092 2.06588 23028 ft 391 kts 77°
2026-05-04 18:01 52.05745 2.10873 23024 ft 391 kts 77°
2026-05-04 18:01 52.06398 2.15164 23031 ft 391 kts 77°
2026-05-04 18:01 52.07050 2.19453 23023 ft 391 kts 77°
2026-05-04 18:02 52.08345 2.27991 23014 ft 391 kts 77°
2026-05-04 18:02 52.08996 2.32290 23012 ft 392 kts 77°
2026-05-04 18:02 52.09641 2.36586 23013 ft 392 kts 77°
2026-05-04 18:02 52.10285 2.40895 23027 ft 392 kts 77°
2026-05-04 18:03 52.10928 2.45202 23021 ft 392 kts 77°
2026-05-04 18:03 52.11794 2.49401 23012 ft 392 kts 66°
2026-05-04 18:03 52.13077 2.53276 22734 ft 385 kts 59°
2026-05-04 18:03 52.14412 2.56965 22487 ft 382 kts 59°
2026-05-04 18:04 52.15758 2.60675 22254 ft 380 kts 59°
2026-05-04 18:04 52.17099 2.64368 22020 ft 378 kts 59°
2026-05-04 18:04 52.19767 2.71710 21559 ft 375 kts 59°
2026-05-04 18:05 52.21089 2.75366 21324 ft 374 kts 59°
2026-05-04 18:05 52.22404 2.79012 21093 ft 372 kts 59°
2026-05-04 18:05 52.23709 2.82643 20861 ft 371 kts 59°
2026-05-04 18:05 52.24990 2.86222 20618 ft 369 kts 59°
2026-05-04 18:06 52.27565 2.93436 20176 ft 366 kts 59°
2026-05-04 18:06 52.28845 2.97020 19951 ft 365 kts 59°
2026-05-04 18:06 52.30118 3.00590 19724 ft 363 kts 59°
2026-05-04 18:07 52.31387 3.04151 19505 ft 362 kts 59°
2026-05-04 18:07 52.32651 3.07704 19277 ft 361 kts 59°
2026-05-04 18:07 52.33911 3.11248 19054 ft 359 kts 59°
2026-05-04 18:07 52.35161 3.14770 18831 ft 358 kts 59°
2026-05-04 18:08 52.36394 3.18248 18608 ft 357 kts 59°
2026-05-04 18:08 52.37634 3.21755 18397 ft 356 kts 59°
2026-05-04 18:08 52.38868 3.25252 18156 ft 354 kts 59°
2026-05-04 18:08 52.40097 3.28740 17926 ft 353 kts 59°
2026-05-04 18:09 52.42536 3.35687 17493 ft 351 kts 59°
2026-05-04 18:09 52.44795 3.42673 17066 ft 348 kts 70°
2026-05-04 18:10 52.45433 3.46496 16847 ft 347 kts 77°
2026-05-04 18:10 52.45980 3.50344 16627 ft 346 kts 77°
2026-05-04 18:10 52.46528 3.54184 16393 ft 345 kts 77°
2026-05-04 18:10 52.46777 3.58128 15571 ft 355 kts 95°
2026-05-04 18:11 52.46167 3.62063 14699 ft 357 kts 116°
2026-05-04 18:11 52.45083 3.65657 14207 ft 346 kts 117°
2026-05-04 18:11 52.44036 3.69145 13767 ft 336 kts 117°
2026-05-04 18:11 52.43042 3.72486 13320 ft 325 kts 116°
2026-05-04 18:12 52.42065 3.75782 12925 ft 320 kts 116°
2026-05-04 18:12 52.41099 3.79035 12563 ft 316 kts 117°
2026-05-04 18:12 52.40137 3.82264 12181 ft 315 kts 117°
2026-05-04 18:12 52.39178 3.85470 11814 ft 311 kts 117°
2026-05-04 18:13 52.38232 3.88630 11280 ft 308 kts 117°
2026-05-04 18:13 52.37296 3.91747 10828 ft 301 kts 117°
2026-05-04 18:13 52.35486 3.97759 10024 ft 288 kts 117°
2026-05-04 18:14 52.34609 4.00657 9605 ft 288 kts 117°
2026-05-04 18:14 52.33723 4.03581 9183 ft 287 kts 117°
2026-05-04 18:14 52.32836 4.06508 8762 ft 286 kts 117°
2026-05-04 18:15 52.31076 4.12323 7896 ft 284 kts 117°
2026-05-04 18:15 52.29330 4.18100 7040 ft 283 kts 116°
2026-05-04 18:15 52.28457 4.20986 6575 ft 283 kts 117°
2026-05-04 18:16 52.27591 4.23827 6114 ft 283 kts 117°
2026-05-04 18:16 52.26744 4.26590 5661 ft 282 kts 117°
2026-05-04 18:16 52.25870 4.29440 5330 ft 276 kts 116°
2026-05-04 18:17 52.24253 4.34724 5180 ft 246 kts 116°
2026-05-04 18:17 52.23500 4.37196 5068 ft 242 kts 116°
2026-05-04 18:17 52.22068 4.42137 5004 ft 241 kts 115°
2026-05-04 18:18 52.21356 4.44637 4731 ft 244 kts 114°
2026-05-04 18:18 52.20895 4.47220 4295 ft 235 kts 95°
2026-05-04 18:18 52.20838 4.49833 3779 ft 233 kts 90°
2026-05-04 18:18 52.20953 4.52415 3427 ft 222 kts 73°
2026-05-04 18:19 52.22371 4.56806 2513 ft 226 kts 56°
2026-05-04 18:19 52.23199 4.58927 2163 ft 215 kts 56°
2026-05-04 18:19 52.23959 4.60892 1872 ft 194 kts 56°
2026-05-04 18:20 52.24633 4.62635 1651 ft 170 kts 55°
2026-05-04 18:20 52.25227 4.64173 1400 ft 152 kts 55°
2026-05-04 18:20 52.25764 4.65565 1206 ft 143 kts 54°
2026-05-04 18:20 52.26284 4.66909 996 ft 139 kts 53°
2026-05-04 18:21 52.26791 4.68224 817 ft 137 kts 54°
2026-05-04 18:21 52.27304 4.69543 605 ft 139 kts 54°
2026-05-04 18:21 52.27808 4.70873 439 ft 138 kts 54°
2026-05-04 18:21 52.28319 4.72192 243 ft 137 kts 55°
2026-05-04 18:22 52.28836 4.73532 51 ft 136 kts 56°
2026-05-04 18:22 52.29297 4.74735 2 ft 115 kts 58°
2026-05-04 18:22 52.29616 4.75560 -1 ft 33 kts 58°
2026-05-04 18:22 52.29755 4.75784 -2 ft 26 kts 27°
2026-05-04 18:23 52.29911 4.75914 -1 ft 25 kts 28°
2026-05-04 18:23 52.30012 4.76038 -1 ft 12 kts 59°
2026-05-04 18:23 52.30017 4.76054 -1 ft 0 kts 59°
2026-05-04 18:24 52.30026 4.76078 -1 ft 5 kts 59°
2026-05-04 18:24 52.30062 4.76172 -1 ft 16 kts 57°
2026-05-04 18:25 52.30130 4.76349 -1 ft 20 kts 57°
2026-05-04 18:25 52.30209 4.76553 -1 ft 22 kts 59°
2026-05-04 18:25 52.30292 4.76771 -1 ft 23 kts 58°
2026-05-04 18:25 52.30379 4.76995 -1 ft 24 kts 58°
2026-05-04 18:26 52.30459 4.77206 -1 ft 18 kts 58°
2026-05-04 18:26 52.30528 4.77387 -1 ft 19 kts 58°
2026-05-04 18:26 52.30597 4.77544 -1 ft 15 kts 45°
2026-05-04 18:26 52.30702 4.77592 -1 ft 17 kts
2026-05-04 18:27 52.30823 4.77605 -1 ft 18 kts
2026-05-04 18:27 52.30954 4.77615 -1 ft 19 kts
2026-05-04 18:27 52.31090 4.77627 -1 ft 20 kts
2026-05-04 18:27 52.31232 4.77642 -1 ft 21 kts
2026-05-04 18:28 52.31377 4.77657 -1 ft 21 kts 359°
2026-05-04 18:28 52.31488 4.77594 -1 ft 18 kts 320°
2026-05-04 18:28 52.31555 4.77479 -1 ft 10 kts 299°
2026-05-04 18:28 52.31577 4.77374 -1 ft 10 kts 274°
2026-05-04 18:29 52.31574 4.77256 -1 ft 12 kts 267°
2026-05-04 18:29 52.31568 4.77082 -1 ft 18 kts 267°
2026-05-04 18:29 52.31560 4.76847 -1 ft 23 kts 267°
2026-05-04 18:29 52.31551 4.76556 -1 ft 28 kts 268°
2026-05-04 18:30 52.31526 4.75873 -1 ft 26 kts 266°
2026-05-04 18:30 52.31516 4.75584 -1 ft 23 kts 267°
2026-05-04 18:30 52.31489 4.75446 -1 ft 12 kts 206°
2026-05-04 18:31 52.31409 4.75443 -1 ft 12 kts 176°
2026-05-04 18:31 52.31326 4.75451 -1 ft 14 kts 176°
2026-05-04 18:31 52.31209 4.75462 -1 ft 17 kts 176°
2026-05-04 18:31 52.31136 4.75454 -1 ft 8 kts 220°
2026-05-04 18:32 52.31095 4.75466 -1 ft 6 kts 144°
2026-05-04 18:32 52.31067 4.75496 -1 ft 4 kts 148°
2026-05-04 18:32 52.31061 4.75503 -1 ft 1 kts 148°
2026-05-04 18:32 52.31051 4.75512 -1 ft 2 kts 148°
2026-05-04 18:33 52.31045 4.75519 -1 ft 2 kts 148°
2026-05-04 18:33 52.31046 4.75518 -1 ft 1 kts 148°
2026-05-04 18:33 52.31045 4.75519 -1 ft 0 kts 148°
2026-05-04 18:34 52.31045 4.75518 -1 ft 0 kts 148°